#timestamp,LO_Frequency,Hit,StdDev 
1582801215.5,286046998.8,N
1582801235.4,286046998.7,N
1582801255.2,286046998.5,N
1582801275.1,286046998.1,N
1582801276.0,286046998.1,N
1582801295.8,286046998.7,N
1582801315.6,286046999.2,N
1582801335.5,286046996.5,N
1582801355.3,286046999.0,N
1582801375.1,286046998.1,N
1582801395.9,286047001.4,N
1582801415.7,286047004.4,N
1582801435.6,286047002.8,N
1582801455.4,286047000.6,N
1582801475.2,286047002.7,N
1582801495.1,286047002.0,N
1582801496.0,286047002.0,N
1582801515.8,286047005.9,Y
1582801535.7,286047007.3,P
1582801555.5,286047008.2,N
1582801575.3,286047010.3,N
1582801595.2,286047006.6,N
1582801615.0,286047007.5,N
1582801615.9,286047007.5,N
1582801635.8,286047001.3,N
1582801655.6,286047000.0,N
1582801675.4,286046998.6,N
1582801695.3,286047002.2,N
1582801715.1,286047002.4,N
1582801735.8,286047001.5,N
1582801755.7,286047000.5,N
1582801775.5,286047000.0,N
1582801795.4,286047001.7,N
1582801815.2,286047003.4,N
1582801835.0,286047006.0,N
1582801835.9,286047006.0,N
1582801855.8,286047005.5,N
1582801875.6,286047003.5,N
1582801895.4,286047002.2,N
1582801915.3,286047002.7,N
1582801935.1,286047002.2,N
1582801955.9,286047002.4,N
1582801975.7,286046998.1,N
1582801995.5,286047001.0,N
1582802015.4,286046997.0,N
1582802035.2,286046998.8,N
1582802055.1,286046998.2,N
1582802056.0,286046998.2,N
1582802075.8,286047000.9,N
1582802095.6,286047000.3,N
1582802115.5,286047004.2,N
1582802135.3,286047003.5,N
1582802155.1,286047003.8,N
1582802175.9,286047001.9,N
1582802195.7,286047000.1,N
1582802215.6,286046998.2,N
1582802235.4,286046999.3,N
1582802255.2,286046997.1,N
1582802275.1,286046999.1,N
1582802276.0,286046999.1,N
1582802295.8,286047002.2,N
1582802315.7,286047000.3,N
1582802335.5,286046999.8,N
1582802355.3,286047000.0,N
1582802375.2,286047000.5,N
1582802395.9,286047002.4,N
1582802415.7,286047004.4,N
1582802435.6,286047001.7,N
1582802455.4,286046999.7,N
1582802475.3,286046999.7,N
1582802495.1,286046998.7,N
1582802496.0,286046998.7,N
1582802515.8,286046999.2,N
1582802535.7,286046996.9,N
1582802555.5,286046999.5,N
1582802575.3,286047002.4,N
1582802595.2,286047002.4,N
1582802615.0,286047000.9,N
1582802615.9,286047000.9,N
1582802635.8,286047001.3,N
1582802655.6,286047001.5,N
1582802675.4,286046999.8,N
1582802695.3,286046998.2,N
1582802715.1,286046996.8,N
1582802735.9,286046998.0,N
1582802755.7,286046997.7,N
1582802775.5,286046996.3,N
1582802795.4,286046993.3,Y
1582802815.2,286046994.5,P
1582802835.0,286046994.2,N
1582802835.9,286046994.2,N
1582802855.8,286046996.3,N
1582802875.6,286046996.1,N
1582802895.5,286046998.0,N
1582802915.3,286046997.6,N
1582802935.1,286046997.0,N
1582802985.9,286047004.0,E
1582802995.8,286047001.0,N
1582803015.7,286046997.9,P
1582803035.5,286046995.7,N
1582803055.3,286046993.4,Y
1582803075.2,286046995.4,P
1582803095.0,286046993.7,P
1582803095.9,286046993.7,P
1582803115.8,286046993.4,Y
1582803135.6,286047001.0,P
1582803155.4,286047001.5,N
1582803175.3,286046999.9,N
1582803195.1,286046999.8,N
1582803215.9,286046999.7,N
1582803235.7,286047000.1,N
1582803255.5,286047001.5,N
1582803275.4,286047001.4,N
1582803295.2,286047003.8,N
1582803315.1,286047011.9,Y
1582803316.0,286047004.0,P
1582803335.8,286047004.1,N
1582803355.6,286047002.5,N
1582803375.5,286047002.1,N
1582803395.3,286047002.8,N
1582803415.1,286047000.9,N
1582803435.9,286046998.2,N
1582803455.7,286046996.7,N
1582803475.6,286046998.0,N
1582803495.4,286046995.6,N
1582803515.2,286046993.9,N
1582803535.1,286046994.3,N
1582803536.0,286046994.3,N
1582803555.8,286046994.4,N
1582803575.7,286046992.5,N
1582803595.5,286046991.9,N
1582803615.3,286046992.2,N
1582803635.2,286046994.5,N
1582803655.9,286046994.1,N
1582803675.7,286046994.2,N
1582803695.6,286046994.6,N
1582803715.4,286046994.1,N
1582803735.3,286046992.4,N
1582803755.1,286046994.4,N
1582803756.0,286046994.4,N
1582803775.8,286046994.6,N
1582803795.7,286046993.8,N
1582803815.5,286046996.2,N
1582803835.3,286046995.0,N
1582803855.2,286046998.0,N
1582803875.0,286046996.7,N
1582803875.9,286046996.7,N
1582803895.8,286046997.1,N
1582803915.6,286046996.9,N
1582803935.4,286046997.9,N
1582803955.3,286046997.1,N
1582803975.1,286046997.8,N
1582803995.9,286046996.9,N
1582804015.7,286046995.4,N
1582804035.5,286046996.4,N
1582804055.4,286046995.1,N
1582804075.2,286046997.5,N
1582804095.0,286046997.4,N
1582804095.9,286046997.4,N
1582804115.8,286046997.1,N
1582804135.6,286046997.0,N
1582804155.5,286046996.9,N
1582804175.3,286046996.5,N
1582804195.1,286046997.7,N
1582804215.9,286046997.8,N
1582804235.7,286046999.6,N
1582804255.5,286046998.4,N
1582804275.4,286046996.7,N
1582804295.2,286046995.3,Y
1582804315.1,286046998.3,P
1582804316.0,286046998.3,N
1582804335.8,286047001.1,N
1582804355.6,286047000.9,N
1582804375.5,286046996.6,N
1582804395.3,286046999.2,N
1582804415.2,286046997.1,N
1582804435.9,286046996.9,N
1582804455.7,286046999.0,N
1582804475.6,286046996.8,N
1582804495.4,286046997.1,N
1582804515.2,286046998.8,N
1582804535.1,286046999.2,N
1582804536.0,286046999.2,N
1582804555.8,286046998.4,N
1582804575.7,286046997.8,N
1582804595.5,286046997.8,N
1582804615.3,286046998.0,N
1582804635.2,286046995.6,Y
1582804655.0,286046997.6,P
1582804655.9,286046997.6,P
1582804675.8,286046996.7,P
1582804695.6,286046998.3,Y
1582804715.4,286047002.7,P
1582804735.3,286047002.7,N
1582804755.1,286047002.4,N
1582804775.9,286047004.3,N
1582804795.7,286047004.4,N
